Showing default

BRO-18, 64550

Orbit data source: Space-Track

BRO-18, 64550 is a payload satellite owned by Unseen Labs (FR) in SSO that was launched on Mon, 23 Jun 2025 UTC via an FALCON 9 launch vehicle from the Air Force Western Test Range (AFWTR). Payload-class satellites include a variety of spacecraft equipped with specific instruments for various scientific and technological missions. These include communications satellites like Starlink; space stations such as the ISS; scientific satellites like the Hubble; Earth observation satellites from companies like Planet Labs, Umbra, and HawkEye 360; GPS; miniature CubeSats for education and research; and military/defense satellites.

Loading next visibility...
Identifier
64550, 2025-135Y
Orbit
SSO
Country
Flag of FRFR
Related business
Manufacturer
GOMSpace
Mission
Operational Commercial Sigint
Bus & Motor
CUBESAT 8U, Unknown motor
Mass
15 kg wet, ~15 kg dry
Launch date (UTC)
2025-06-23 (1 year ago)
Launch vehicle
FALCON 9
Launch site
Air Force Western Test Range (AFWTR)
Object type
Payload
Rocket body
Debris
Shape & HBR
Box, 0.2 m
Radar Cross Section
0.100 m², Medium (>0.1 m² and < 1m²)

Expand to show TLE details & history
Last TLE update: 5 hours ago

TLE from 5 hours ago
0 BRO-18
1 64550U 25135Y   26178.57325740  .00003996  00000-0  17785-3 0  9991
2 64550  97.4639 293.5225 0001621 136.7187 223.4177 15.22045193 56459
Epoch: 2026-06-27T13:45Z
TLE epoch observation values (Epoch: 2026-06-27T13:45:29.439Z)
Latitude
0.00002°
Longitude
171.46436°
Altitude
503.574 km
Speed
7.612 km/s
True Right ascension
19h 34m 05s
True Declination
0° 00' 00"
Sunlit
Object was in full shadow at epoch
Visualization orbit readout
Latitude
Unknown
Longitude
Unknown
Altitude
Unknown
Speed
Unknown
Apparent Right ascension
Unknown
Apparent Declination
Unknown
Sunlit
N/A
Visualization observer readout
Local Sidereal Time
05:59:23
Azimuth
Unknown
Elevation
Unknown
Doppler factor
Unknown
Orbital elements
Apogee altitude
497.752 km
Perigee altitude
495.524 km
Semi-major axis
6,874.775 km
Eccentricity
0.00016
Inclination
97.4639°
RAAN
293.5225°
Arg. of periapsis
136.7187°
True anomaly
223.40493°
Mean anomaly
223.4177°
Eccentric anomaly
223.41132°
Mean motion
3.80764 °/min
Orbital period
94.55 mins
BSTAR
0.00017785
Loading maneuver chart data...
Computing Atmospheric mass density...
Loading historical data...
Loading historical data...
Loading historical data...
Loading historical data...
Loading historical data...
Loading historical data...
Loading historical data...

Documentation

Showing up to 5 results
|